DRAGON CRS-15 (43522 NORAD) Tracking and Keplerian Element Data

This shows tracking and keplerian element data for the satellite.

Feedback or suggestion? Click here.




ElementValue
Catalog43522
NameDRAGON CRS-15
Epoch Orbit12324
Epoch Day198.57061359
Epoch Year2018
RAAN227.2688
Inclination51.6394
Eccentricity0.0003925
Argument of Perigee326.5855
Mean Anonmoly135.0965
Mean Motion15.53984061
Decay Rate1.399E-05
L11 43522U 18055A 18198.57061359 .00001399 00000-0 28512-4 0 9992
L22 43522 51.6394 227.2688 0003925 326.5855 135.0965 15.53984061123247

Live tracking and technical data element details for DRAGON CRS-15 (NORAD 43522). DRAGON CRS-15 can be tracked NOW for your location showing map with azimuth and elevation plus other details from your city location.

Track the satellite on the map from your city or location and see movement details for azimuth, elevation, latitude, longitude, range, height, and movement on the map or in text.







IsCatalogInMostPopularTable: catalog: 43522, numindb: 4
Update: records affected: 1



GetName: 43522 DRAGON CRS-15

Hit Count: updated at: Thu, 19 Jul 2018 21:18:43 GMT